Regional Weather Roundup
Issued by NWS Upton, NY

Current Version | Previous Version | Graphics & Text | Print | Product List | Glossary Off
Versions: 1 2 3 4 5 6 7 8 9 10 11 12 13 14 15 16 17 18 19 20 21 22 23 24 25 26 27 28 29 30

000
ASUS41 KOKX 211708
RWROKX

REGIONAL WEATHER ROUNDUP
NATIONAL WEATHER SERVICE NEW YORK NY
1200 PM EST TUE NOV 21 2017

NOTE: "FAIR" INDICATES FEW OR NO CLOUDS BELOW 12,000 FEET WITH NO
SIGNIFICANT WEATHER AND/OR OBSTRUCTIONS TO VISIBILITY.

NYZ071-072-176-178-NJZ106-104-211800-
NEW YORK CITY METRO AREA

CITY           SKY/WX    TMP DP  RH WIND       PRES   REMARKS
Central Park   SUNNY     54  30  40 MISG      30.10F
Bronx Bot Gard   N/A     55  30  38 W17       30.09F
Bronx Lehman C   N/A     54  32  43 SW16        N/A
LaGuardia APRT PTSUNNY   56  30  37 SW16G25   30.08F
Queens College   N/A     54  32  43 SW16        N/A
Kennedy INTL   PTSUNNY   57  33  40 SW22      30.11F
Breezy Point     N/A     55 N/A N/A SW12G21     N/A
Brooklyn Coll    N/A     54  32  43 SW10        N/A
Staten Island    N/A     55  32  41 SW13        N/A
Newark/Liberty PTSUNNY   56  32  40 SW17G26   30.08F
Teterboro      SUNNY     55  32  41 SW20G25   30.07F
$$

NYZ177-179-078>081-211800-
LONG ISLAND NEW YORK

CITY           SKY/WX    TMP DP  RH WIND       PRES   REMARKS
Jones Beach      N/A     54 N/A N/A SW13G22     N/A
Wantagh          N/A     55  32  41 S16         N/A
Matinecock PT    N/A     54 N/A N/A SW21        N/A
Farmingdale    MOSUNNY   55  37  50 S22G28    30.10F
MacArthur/ISP  PTSUNNY   56  35  45 SW22G28   30.10F
Shirley        MOSUNNY   56  40  55 S16G25    30.11F
Mt Sinai Harb  NOT AVBL
Westhampton    SUNNY     57  38  48 SW15G25   30.13F
East Hampton   FAIR      56  38  51 SW20G28   30.12F
Southold         N/A     55  32  41 SW14        N/A
Montauk          N/A     58  39  49 SW14G28   30.13F
$$

NYZ052-065-067-211800-
HUDSON VALLEY

CITY           SKY/WX    TMP DP  RH WIND       PRES   REMARKS
White Plains   MOSUNNY   53  30  41 S12G21    30.05F
Larchmont Harb   N/A     52 N/A N/A S23         N/A
Croton On Huds   N/A     54 N/A N/A S7G14       N/A
Somers           N/A     52  32  46 S9          N/A
Brewster         N/A     52  32  46 S7          N/A
Newburgh       PTSUNNY   52  32  46 S14       30.04F
Montgomery     MOSUNNY   54  30  40 SW15      30.00F
Suffern          N/A     52  32  46 SW9         N/A
Poughkeepsie   PTSUNNY   51  30  44 S10       30.01F
Albany         MOSUNNY   50  24  36 S22G30    29.95F
$$

NJZ001-105-106-008-010-013-015-019>022-104-211800-
NEW JERSEY

CITY           SKY/WX    TMP DP  RH WIND       PRES   REMARKS
Newark/Liberty PTSUNNY   56  32  40 SW17G26   30.08F
Teterboro      SUNNY     55  32  41 SW20G25   30.07F
Caldwell       SUNNY     52  32  46 W9        30.08F
Somerville     SUNNY     56  34  43 MISG      30.06F
Linden         FAIR      55  30  38 W8        30.09F
Perth Amboy      N/A     54 N/A N/A SW17G24     N/A
Sussex         SUNNY     52  29  41 SW10G18   30.03F
Andover          N/A     51  30  44 SW8G21    30.05F
Trenton        SUNNY     56  32  40 SW12      30.09F
Millville      SUNNY     56  35  45 SW8G18    30.14F
Atlantic City  SUNNY     56  32  40 SW20G31   30.14F
Wrightstown    SUNNY     58  31  35 SW17      30.07F
Toms River     SUNNY     58  32  37 SW21G26   30.12F
Belmar         SUNNY     57  31  37 S17G26    30.10F
$$

PAZ047>061-062-071-211800-
EASTERN PENNSYLVANIA

CITY           SKY/WX    TMP DP  RH WIND       PRES   REMARKS
Philadelphia   PTSUNNY   56  31  38 SW17      30.10F
Allentown      SUNNY     55  29  36 SW8       30.06F
Scranton       SUNNY     55  20  25 SW17G26   29.98F
$$

CTZ002-004>006-009-010-012-RIZ004-006-007-MAZ004-011-015-211800-
SOUTHERN NEW ENGLAND
 IN CT

CITY           SKY/WX    TMP DP  RH WIND       PRES   REMARKS
Bradley INTL   PTSUNNY   56  29  35 SW18G29   30.03F
Hartford       SUNNY     56  33  42 S18G25    30.04F
Danbury        CLOUDY    54  29  38 SW14G21   30.06F
Wtrbury/Oxford SUNNY     52  31  44 SW10G20   30.05F
Norwalk Harbor   N/A     52 N/A N/A S17         N/A
Bridgeport     MOSUNNY   56  34  43 SW20      30.08F
Meriden        SUNNY     55  32  41 S16G26    30.06F
New Haven      SUNNY     56  35  45 S13       30.09F
Chester        FAIR      55  34  44 SW12G23   30.08F
Groton         SUNNY     57  38  48 SW24G33   30.10F
Wilimantic     SUNNY     58  32  37 S15G25    30.07F

 IN RI

CITY           SKY/WX    TMP DP  RH WIND       PRES   REMARKS
Providence     MOSUNNY   58  32  37 SW22G32   30.09F
Block Island   SUNNY     57  39  51 SW21G33   30.12F
Westerly       SUNNY     58  40  51 S17G24    30.11F
 IN MA

CITY           SKY/WX    TMP DP  RH WIND       PRES   REMARKS
Boston         MOSUNNY   57  28  33 SW31G38   30.03F
Worcester      SUNNY     51  24  34 S21G32    30.01F
Westfield      SUNNY     55  28  35 S21       30.01F
Provincetown   SUNNY     56  42  59 MISG      30.08F
Nantucket      MOSUNNY   58  45  62 SW22G30   30.16F
$$

ANZ330-335-338-340-345-350-353-355-211800-
COASTAL MARINE OBSERVATIONS


STATION/POSITION TIME  SKY/WX   TEMP    WIND        PRES    VSBY  WAVE
                                AIR SEA DIR/SP/G                  HT/PER
                 (UTC)          (F)     (DEG/KT/KT) (MB)    (MI)  (FT/S)
NY HARB ENTRANCE 1550            53 58  210/ 23/ 27 1019.3          5/ 6
20 S FIRE ISLAND 1650            55 56  220/ 23/ 27 1019.9          7/ 7
GREAT SOUTH BAY  1615            51 46  220/ 17/ 21   N/A
HUDSON CANYON    1650            58 59  230/ 21/ 25 1021.3          7/ 6
KINGS POINT      1636            53 51  260/ 18/ 27 1019.5
EXECUTION ROCKS  1630            55     200/ 17/ 25   N/A
WESTERN LI SOUND 1549            54     220/ 19/ 27   N/A           2/ 3
CENTRAL LI SOUND 1600            55     220/ 17/ 21   N/A           3
ROBBINS REEF     1636            53     210/ 14/ 19 1019.6
$$


>>>>>>>>>>>>>>>>>>>>>>>>>>>> KEY <<<<<<<<<<<<<<<<<<<<<<<<<<<
>                                                          <
>     SKY/WX - Sky Condition/Present Weather               <
>     TMP    - Temperature in Fahrenheit                   <
>     DP     - Dew Point in Fahrenheit                     <
>     RH     - Relative Humidity in Percent                <
>     WIND   - Direction (from) and Speed in MPH           <
>     PRES   - Mean Sea Level Pressure (inches of Hg)      <
>     WCI    - Wind Chill Index                            <
>     VSB    - VISIBILITY IN MILES                         <
>     HX     - HEAT INDEX                                  <
>     TC     - TEMPERATURE IN CELSIUS                      <
>     VRB    - VARIABLE WIND DIRECTION                     <
>                                                          <
>>>>>>>>>>>>>>>>>>>>>>>>>>>> KEY <<<<<<<<<<<<<<<<<<<<<<<<<<<




USA.gov is the U.S. government's official web portal to all federal, state and local government web resources and services.